Skip Page Navigation
NASA JPL Caltech
NASA Logo - Jet Propulsion Laboratory + View the NASA Portal
+ Center for Near-Earth Object Studies
JPL Home Earth Solar System Stars & Galaxies Technology
JPL Solar System Dynamics
BODIES ORBITS EPHEMERIDES TOOLS PHYSICAL DATA DISCOVERY FAQ SITE MAP
JPL Small-Body Database Browser
Search: [ help ]  
(2020 VT4)
Classification: Aten [NEO]          SPK-ID: 54087809
Ephemeris | Orbit Diagram | Orbital Elements | Mission Design | Physical Parameters | Close-Approach Data ]

[ show orbit diagram ]
Orbital Elements at Epoch 2459200.5 (2020-Dec-17.0) TDB
Reference: JPL 5 (heliocentric ecliptic J2000)
 Element Value Uncertainty (1-sigma)   Units 
e .2029522001057208 6.3912e-05  
a .9077988302813713 9.6189e-06 au
q .7235590604223672 6.5675e-05 au
i 10.17101788415419 0.0036275 deg
node 231.4221969142606 0.00022212 deg
peri 53.67768550512036 0.0016902 deg
M 143.8649121942155 0.0086812 deg
tp 2459074.248880065740
(2020-Aug-12.74888007)
0.00962 TDB
period 315.924171385002
0.86
0.0050212
1.375e-05
d
yr
n 1.13951394862182 1.8111e-05 deg/d
Q 1.092038600140375 1.1571e-05 au
  Orbit Determination Parameters
   # obs. used (total)      34  
   data-arc span      5 days  
   first obs. used      2020-11-14  
   last obs. used      2020-11-19  
   planetary ephem.      DE441  
   SB-pert. ephem.      SB441-N16  
   condition code      5  
   norm. resid. RMS      .41425  
   source      ORB  
   producer      Otto Matic  
   solution date      2021-Apr-15 23:17:04  

Additional Information
 Earth MOID = .000197058 au 
 Jupiter MOID = 4.0015 au 
 T_jup = 6.537 
[ show covariance matrix ]

Ephemeris | Orbit Diagram | Orbital Elements | Mission Design | Physical Parameters | Close-Approach Data ]

Physical Parameter Table
Parameter Symbol Value Units Sigma Reference Notes
absolute magnitude H 28.7   .48648 MPO600175 autocmod 2.8

[ hide close-approach data ]
Close-Approach Data   ...sorted by Date/Time (TDB)
Date/Time (TDB) Time Uncertainty
(days_HH:MM)
Body Nominal Distance (au) Minimum Distance (au) Maximum Distance (au) V-relative (km/s) V-infinity (km/s) JD (TDB) Time Uncertainty (minutes) Semi-major axis (km) Semi-minor axis (km) range-LOV angle (deg) N-sigma BP Orbit Ref. Reference Modified
1937-Nov-17 04:15 6_10:06 Earth 0.0243196578862047 0.00257613853632041 0.0738669738948967 7.98048760571821 7.96674720171159 2428854.677111784 9245.89966125434 2475473.57729676 1051.73588010142 6.21524688493941 377.9554070526 T 5 CATAB v2.0g-lin.ifort 2021-Apr-15 23:17:04 2021-Apr-15 23:17
1940-Nov-26 20:09 7_13:06 Earth 0.104466762780721 0.0426343510624787 0.170452361467564 8.803127936866 8.80023013496887 2429960.339911595 10865.9499971542 3353508.66222652 2158.05609514582 14.2840712414215 1975.39223268276 T 5 CATAB v2.0g-lin.ifort 2021-Apr-15 23:17:04 2021-Apr-15 23:17
1943-Dec-08 03:20 6_22:47 Earth 0.202541538532951 0.132856014857811 0.273887936424097 10.7287285664318 10.7275023283092 2431066.639197648 10006.8903555333 3633588.16190069 2052.01312078359 13.6863639156092 3648.67257312449 T 5 CATAB v2.0g-lin.ifort 2021-Apr-15 23:17:04 2021-Apr-15 23:17
1946-Dec-17 11:59 5_20:09 Earth 0.309486594220184 0.237339794584929 0.382639677934743 13.3951740336395 13.3945312977159 2432171.999402616 8408.97704619178 3728196.98298176 1164.07627214696 13.2846103169618 9629.42775595711 T 5 CATAB v2.0g-lin.ifort 2021-Apr-15 23:17:04 2021-Apr-15 23:17
1949-Jul-21 05:03 8_03:39 Earth 0.472651345710297 0.449752492694266 0.497278789555616 6.50640481892578 6.50553833742231 2433118.710199435 11738.5100398162 1854161.47942356 3652.12704222128 50.2231790852812 3677.60583618275 T 5 CATAB v2.0g-lin.ifort 2021-Apr-15 23:17:04 2021-Apr-15 23:17
1949-Dec-25 21:13 5_04:15 Earth 0.423145656185605 0.350948026539219 0.496025997753978 16.540877200398 16.5404965126235 2433276.383900051 7454.86555777043 3715235.87635112 897.745858083591 12.9994506982389 10981.3577361132 T 5 CATAB v2.0g-lin.ifort 2021-Apr-15 23:17:04 2021-Apr-15 23:17
2005-Sep-24 01:41 2_12:45 Earth 0.441734232356226 0.411350349778106 0.472300138546194 16.6236451102099 16.6232822579924 2453637.570324373 3645.29199354664 1584088.83864626 9562.51674104173 -16.3638926242747 1610.90430182308 T 5 CATAB v2.0g-lin.ifort 2021-Apr-15 23:17:04 2021-Apr-15 23:17
2006-Mar-04 02:58 3_09:54 Earth 0.477926774100415 0.467797369077796 0.48805592417296 6.79196752371612 6.79114664 2453798.623744130 4913.82900146723 504806.12499924 4231.44117166082 -0.322928252068118 58.5317812494624 T 5 CATAB v2.0g-lin.ifort 2021-Apr-15 23:17:04 2021-Apr-15 23:17
2008-Oct-03 15:04 2_13:56 Earth 0.335216842529628 0.308246801350113 0.362502527941242 13.6388693819896 13.6382865848192 2454743.127578154 3716.42887018963 1446769.41800929 8691.94711195418 -20.7066501253968 1657.87746501744 T 5 CATAB v2.0g-lin.ifort 2021-Apr-15 23:17:04 2021-Apr-15 23:17
2009-Feb-17 13:58 4_23:08 Earth 0.437236747322017 0.425590617739115 0.448970010899677 5.11069220716134 5.10949968448096 2454880.082242561 7148.37954165754 659221.70172848 7732.15551912074 28.0537612144144 1331.83782097209 T 5 CATAB v2.0g-lin.ifort 2021-Apr-15 23:17:04 2021-Apr-15 23:17
2011-Oct-15 00:11 2_16:17 Earth 0.233494784690446 0.210692170594381 0.256901799004455 11.0502271226616 11.0491943986801 2455849.507292190 3856.78575779594 1295620.46693532 7886.6196149241 -27.086124583284 1652.68304401897 T 5 CATAB v2.0g-lin.ifort 2021-Apr-15 23:17:04 2021-Apr-15 23:17
2012-Jul-18 03:12 2_01:06 Mars 0.0862423181775947 0.0861740130506969 0.0882687061841989 7.04951107711733 7.04904016346676 2456126.633558365 2946.291555472 881910.77553397 3027.98498148009 -89.2335098529221 4034.25970526379 T 5 CATAB v2.0g-lin.ifort 2021-Apr-15 23:17:04 2021-Apr-15 23:17
2014-Oct-26 17:32 2_10:35 Earth 0.137803079289215 0.119903858767523 0.15694016804651 9.05369565801043 9.05155976854328 2456957.230753378 3515.18339862301 1130468.92646155 6732.79881120935 -34.873915553287 1476.98370352663 T 5 CATAB v2.0g-lin.ifort 2021-Apr-15 23:17:04 2021-Apr-15 23:17
2017-Nov-06 15:53 1_17:42 Earth 0.0542971617476134 0.0420999173123108 0.0670351630878719 8.05167688620441 8.04557992612769 2458064.161926349 2502.44010561116 678065.814592492 3661.06967839538 -22.870554287795 784.481121315159 T 5 CATAB v2.0g-lin.ifort 2021-Apr-15 23:17:04 2021-Apr-15 23:17
2020-Jan-21 22:55 06:29 Mars 0.0891164888868923 0.0884424917782685 0.0900166735827069 7.27623912583023 7.27579760180638 2458870.454655410 388.772080718856 238412.712072662 11458.137062819 80.961243066994 1121.45765754467 T 5 CATAB v2.0g-lin.ifort 2021-Apr-15 23:17:04 2021-Apr-15 23:17
2020-Nov-13 16:52 < 00:01 Moon 0.00233577056060562 0.00233552389017017 0.00233601847532974 10.5384778787898 10.5371463880705 2459167.203121151 0.531293643240415 86.9075016002455 1.87648399456037 -81.9694916929602 100026.390118165 T 5 CATAB v2.0g-lin.ifort 2021-Apr-15 23:17:04 2021-Apr-15 23:17
2020-Nov-13 17:21 < 00:01 Earth 4.50910597356063e-05 4.50230750909071e-05 4.51593933094878e-05 13.4271195491719 7.88069685599943 2459167.222686305 0.709568922229981 9.53822032604084 1.76574172415242 81.9183647027764 105.430943797647 T 5 CATAB v2.0g-lin.ifort 2021-Apr-15 23:17:04 2021-Apr-15 23:17
2021-Jun-01 21:27 01:07 Earth 0.277642159464091 0.277379851799698 0.277904528062796 9.60220238676715 9.60120289621974 2459367.393762519 66.963653158946 14601.9330258995 218.037792109777 -26.4077491344099 48331.2111261897 T 5 CATAB v2.0g-lin.ifort 2021-Apr-15 23:17:04 2021-Apr-15 23:17
2022-Feb-19 18:51 00:34 Earth 0.445414853948218 0.44521130364969 0.445618525766139 19.3943081107436 19.3939996663907 2459630.285274004 33.5045974696785 15428.3659690308 518.41552832029 48.8829513619571 78609.7997151691 T 5 CATAB v2.0g-lin.ifort 2021-Apr-15 23:17:04 2021-Apr-15 23:17
2026-Nov-22 13:27 01:27 Earth 0.343692604465362 0.34192631392811 0.345458900183776 17.5117796280203 17.5113369200142 2461367.060529769 87.4861674834477 88103.0307959621 55.4333197832521 -1.42940203347451 19250.9700826025 T 5 CATAB v2.0g-lin.ifort 2021-Apr-15 23:17:04 2021-Apr-15 23:17
2027-Jul-27 09:25 06:53 Earth 0.320294055725088 0.319979210944791 0.320608951350145 9.05254458620791 9.05162558760632 2461613.892414588 413.123542809791 16942.1853468144 211.210404801205 -22.1468856145083 55172.7738023775 T 5 CATAB v2.0g-lin.ifort 2021-Apr-15 23:17:04 2021-Apr-15 23:17
2028-Mar-11 13:42 02:45 Earth 0.169989293121441 0.169228102921574 0.1707613296096 9.1796809554309 9.17797328680794 2461842.071007847 165.414229842638 77767.9558719638 521.460517478798 60.5710739731052 23987.2614163187 T 5 CATAB v2.0g-lin.ifort 2021-Apr-15 23:17:04 2021-Apr-15 23:17
2033-Nov-27 05:54 18:42 Earth 0.122389986729245 0.119503615249107 0.125315945939791 6.14357555063317 6.14003092339726 2463928.745673731 1121.80431957723 181816.971546318 292.232976126692 37.1370046078817 24556.2288647964 T 5 CATAB v2.0g-lin.ifort 2021-Apr-15 23:17:04 2021-Apr-15 23:17
2034-May-11 00:08 13:30 Earth 0.236348953302231 0.235350897714961 0.237364191212111 8.64287246771654 8.64156799997427 2464093.505846021 809.702787107108 112339.31255976 329.641781747149 -63.4632287438827 45584.2860416506 T 5 CATAB v2.0g-lin.ifort 2021-Apr-15 23:17:04 2021-Apr-15 23:17
2039-Nov-17 17:42 03:25 Earth 0.197111180177241 0.192435415653424 0.201787001750293 13.1595597606325 13.1585325093573 2466110.237633490 204.520409143136 233222.853440154 24.2558313002259 -1.45202577564089 23844.4060606605 T 5 CATAB v2.0g-lin.ifort 2021-Apr-15 23:17:04 2021-Apr-15 23:17
2040-Jul-02 13:07 16:20 Earth 0.315398835790584 0.31513062512417 0.315667764621769 9.90395748820731 9.90310446232889 2466338.046227481 979.700595595846 27263.9572081289 463.828323067027 -60.5805378021538 43449.9261693235 T 5 CATAB v2.0g-lin.ifort 2021-Apr-15 23:17:04 2021-Apr-15 23:17
